| time (UTC) | temp F | wind direction | speed MPH | gust MPH | rain 1hr in | rain 24hr in | rain mn in | humidity % | barometer mb |
| 20260506230536 | 56 | 225 | 3.0 | 7.0 | 0.00 | 0.01 | 0.00 | 1007.2 | |
| 20260506225533 | 56 | 229 | 2.0 | 5.0 | 0.00 | 0.01 | 0.00 | 1007.1 | |
| 20260506224529 | 56 | 238 | 3.0 | 6.0 | 0.00 | 0.01 | 0.00 | 1007.1 | |
| 20260506223525 | 56 | 211 | 1.0 | 4.0 | 0.00 | 0.01 | 0.00 | 1007.0 | |
| 20260506222520 | 57 | 216 | 2.0 | 4.0 | 0.00 | 0.01 | 0.00 | 1007.0 | |
| 20260506221517 | 57 | 217 | 2.0 | 5.0 | 0.00 | 0.01 | 0.00 | 1006.8 | |
| 20260506220613 | 57 | 45 | 1.0 | 3.0 | 0.00 | 0.01 | 0.00 | 1006.9 | |
| 20260506215610 | 58 | 238 | 2.0 | 6.0 | 0.00 | 0.01 | 0.01 | 1006.8 | |
| 20260506214606 | 58 | 232 | 2.0 | 7.0 | 0.00 | 0.01 | 0.01 | 1006.7 | |
| 20260506213602 | 58 | 217 | 2.0 | 6.0 | 0.00 | 0.02 | 0.01 | 1006.7 | |
| 20260506212559 | 58 | 226 | 2.0 | 5.0 | 0.00 | 0.02 | 0.01 | 1006.6 | |
| 20260506211555 | 58 | 246 | 1.0 | 5.0 | 0.00 | 0.02 | 0.01 | 1006.6 | |
| 20260506210551 | 58 | 225 | 2.0 | 3.0 | 0.00 | 0.02 | 0.01 | 1006.6 | |
| 20260506205548 | 58 | 248 | 0.0 | 3.0 | 0.00 | 0.02 | 0.01 | 1006.5 | |
| 20260506204543 | 58 | 0.0 | 2.0 | 0.00 | 0.02 | 0.01 | 1006.4 | ||
| 20260506203540 | 59 | 0.0 | 1.0 | 0.00 | 0.02 | 0.01 | 1006.3 | ||
| 20260506202536 | 59 | 0.0 | 0.0 | 0.00 | 0.02 | 0.01 | 1006.3 | ||
| 20260506201532 | 59 | 225 | 0.0 | 3.0 | 0.00 | 0.02 | 0.01 | 1006.4 | |
| 20260506200528 | 60 | 0.0 | 2.0 | 0.00 | 0.02 | 0.01 | 1006.2 | ||
| 20260506195525 | 60 | 203 | 0.0 | 3.0 | 0.00 | 0.02 | 0.01 | 1006.2 | |
| 20260506194521 | 60 | 225 | 1.0 | 4.0 | 0.00 | 0.04 | 0.01 | 1006.1 | |
| 20260506193517 | 60 | 291 | 1.0 | 7.0 | 0.00 | 0.04 | 0.01 | 1006.0 | |
| 20260506192614 | 60 | 237 | 2.0 | 5.0 | 0.00 | 0.04 | 0.01 | 1005.9 | |
| 20260506191609 | 60 | 241 | 1.0 | 8.0 | 0.00 | 0.04 | 0.01 | 1005.8 | |
| 20260506190606 | 60 | 0.0 | 0.0 | 0.00 | 0.04 | 0.01 | 1005.6 | ||
| 20260506185603 | 61 | 0.0 | 0.0 | 0.00 | 0.04 | 0.01 | 1005.5 | ||
| 20260506184559 | 61 | 0.0 | 0.0 | 0.00 | 0.04 | 0.01 | 1005.3 | ||
| 20260506183555 | 62 | 0.0 | 2.0 | 0.00 | 0.04 | 0.01 | 1005.0 | ||
| 20260506182551 | 62 | 0.0 | 0.0 | 0.00 | 0.04 | 0.01 | 1004.9 | ||
| 20260506181547 | 63 | 0.0 | 0.0 | 0.00 | 0.05 | 0.01 | 1004.8 | ||
| 20260506180545 | 63 | 0.0 | 0.0 | 0.00 | 0.05 | 0.01 | 1004.8 | ||
| 20260506175539 | 63 | 0.0 | 1.0 | 0.00 | 0.05 | 0.01 | 1004.7 | ||
| 20260506174536 | 64 | 0.0 | 2.0 | 0.00 | 0.05 | 0.01 | 1004.6 | ||
| 20260506173533 | 64 | 0.0 | 2.0 | 0.00 | 0.06 | 0.01 | 1004.7 | ||
| 20260506172529 | 64 | 0 | 1.0 | 4.0 | 0.00 | 0.07 | 0.01 | 1004.6 | |
| 20260506171525 | 65 | 45 | 0.0 | 3.0 | 0.00 | 0.09 | 0.01 | 1004.4 | |
| 20260506170521 | 65 | 0.0 | 1.0 | 0.00 | 0.18 | 0.01 | 1004.4 | ||
| 20260506165519 | 65 | 270 | 0.0 | 3.0 | 0.00 | 0.22 | 0.01 | 1004.3 | |
| 20260506164614 | 65 | 0.0 | 2.0 | 0.00 | 0.32 | 0.01 | 1004.3 | ||
| 20260506163610 | 66 | 0.0 | 2.0 | 0.00 | 0.33 | 0.01 | 1004.4 | ||
| 20260506162607 | 67 | 275 | 1.0 | 4.0 | 0.00 | 0.33 | 0.01 | 1004.5 | |
| 20260506161603 | 67 | 0.0 | 2.0 | 0.00 | 0.34 | 0.01 | 1004.6 | ||
| 20260506160559 | 67 | 0.0 | 2.0 | 0.00 | 0.34 | 0.01 | 1004.7 | ||
| 20260506155555 | 67 | 225 | 0.0 | 4.0 | 0.00 | 0.34 | 0.01 | 1004.7 | |
| 20260506154552 | 67 | 210 | 0.0 | 4.0 | 0.00 | 0.34 | 0.01 | 1004.7 | |
| 20260506153547 | 67 | 236 | 2.0 | 5.0 | 0.00 | 0.34 | 0.01 | 1004.8 | |
| 20260506152544 | 68 | 228 | 2.0 | 5.0 | 0.00 | 0.34 | 0.01 | 1004.7 | |
| 20260506151541 | 68 | 270 | 0.0 | 3.0 | 0.00 | 0.34 | 0.01 | 1004.6 | |
| 20260506150536 | 68 | 0.0 | 3.0 | 0.00 | 0.34 | 0.01 | 1004.5 | ||
| 20260506145532 | 68 | 242 | 1.0 | 5.0 | 0.00 | 0.34 | 0.01 | 1004.6 | |
| 20260506143525 | 69 | 237 | 0.0 | 3.0 | 0.00 | 0.34 | 0.01 | 1004.6 | |
| 20260506142521 | 69 | 221 | 1.0 | 4.0 | 0.00 | 0.34 | 0.01 | 1004.7 | |
| 20260506141518 | 70 | 179 | 1.0 | 4.0 | 0.00 | 0.34 | 0.01 | 1004.7 | |
| 20260506140615 | 70 | 0.0 | 1.0 | 0.00 | 0.34 | 0.01 | 1004.8 | ||
| 20260506135610 | 69 | 175 | 2.0 | 4.0 | 0.00 | 0.34 | 0.01 | 1004.8 | |
| 20260506134606 | 69 | 150 | 1.0 | 4.0 | 0.00 | 0.34 | 0.01 | 1004.9 | |
| 20260506133603 | 69 | 176 | 1.0 | 4.0 | 0.00 | 0.34 | 0.01 | 1004.8 | |
| 20260506132559 | 69 | 135 | 0.0 | 4.0 | 0.00 | 0.34 | 0.01 | 1004.9 | |
| 20260506131555 | 69 | 171 | 2.0 | 4.0 | 0.00 | 0.34 | 0.01 | 1004.9 | |
| 20260506130551 | 69 | 180 | 2.0 | 5.0 | 0.00 | 0.34 | 0.01 | 1005.0 | |
| 20260506125548 | 70 | 185 | 2.0 | 7.0 | 0.00 | 0.34 | 0.01 | 1004.9 | |
| 20260506124544 | 69 | 229 | 1.0 | 7.0 | 0.00 | 0.34 | 0.01 | 1005.1 | |
| 20260506123540 | 69 | 259 | 1.0 | 5.0 | 0.00 | 0.34 | 0.01 | 1005.1 | |
| 20260506122536 | 70 | 230 | 1.0 | 5.0 | 0.00 | 0.34 | 0.01 | 1005.1 | |
| 20260506121533 | 71 | 170 | 1.0 | 5.0 | 0.00 | 0.34 | 0.01 | 1005.3 | |
| 20260506120528 | 69 | 270 | 2.0 | 3.0 | 0.00 | 0.34 | 0.01 | 1005.4 | |
| 20260506115525 | 69 | 225 | 0.0 | 4.0 | 0.00 | 0.34 | 0.01 | 1005.4 | |
| 20260506114521 | 69 | 193 | 2.0 | 4.0 | 0.00 | 0.34 | 0.01 | 1005.3 | |
| 20260506113518 | 68 | 190 | 2.0 | 6.0 | 0.00 | 0.34 | 0.01 | 1005.4 | |
| 20260506112614 | 67 | 225 | 1.0 | 4.0 | 0.00 | 0.34 | 0.01 | 1005.5 | |
| 20260506111610 | 68 | 232 | 3.0 | 7.0 | 0.00 | 0.34 | 0.01 | 1005.5 | |
| 20260506110607 | 68 | 225 | 2.0 | 4.0 | 0.00 | 0.34 | 0.01 | 1005.5 | |
| 20260506105603 | 69 | 180 | 2.0 | 5.0 | 0.00 | 0.34 | 0.01 | 1005.5 | |
| 20260506104559 | 68 | 204 | 3.0 | 9.0 | 0.00 | 0.34 | 0.01 | 1005.5 | |
| 20260506103556 | 68 | 204 | 3.0 | 6.0 | 0.00 | 0.34 | 0.01 | 1005.6 | |
| 20260506102551 | 68 | 209 | 2.0 | 7.0 | 0.00 | 0.34 | 0.01 | 1005.7 | |
| 20260506101547 | 67 | 226 | 2.0 | 7.0 | 0.00 | 0.34 | 0.01 | 1005.8 | |
| 20260506100544 | 65 | 180 | 2.0 | 4.0 | 0.00 | 0.34 | 0.01 | 1005.7 | |
| 20260506095540 | 66 | 216 | 2.0 | 5.0 | 0.00 | 0.34 | 0.01 | 1005.8 | |
| 20260506094537 | 67 | 219 | 2.0 | 6.0 | 0.00 | 0.34 | 0.01 | 1005.9 | |
| 20260506093533 | 67 | 182 | 2.0 | 6.0 | 0.00 | 0.34 | 0.01 | 1005.9 | |
| 20260506092559 | 66 | 163 | 3.0 | 8.0 | 0.00 | 0.34 | 0.01 | 1006.0 | |
| 20260506091556 | 65 | 220 | 2.0 | 7.0 | 0.00 | 0.34 | 0.01 | 1005.8 | |
| 20260506090552 | 64 | 0 | 2.0 | 4.0 | 0.00 | 0.34 | 0.01 | 1006.0 | |
| 20260506085548 | 64 | 210 | 2.0 | 6.0 | 0.00 | 0.34 | 0.01 | 1006.0 | |
| 20260506084544 | 63 | 238 | 2.0 | 6.0 | 0.00 | 0.34 | 0.01 | 1005.9 | |
| 20260506083540 | 61 | 193 | 1.0 | 8.0 | 0.00 | 0.34 | 0.01 | 1005.6 | |
| 20260506082536 | 63 | 250 | 2.0 | 9.0 | 0.00 | 0.34 | 0.01 | 1005.6 | |
| 20260506081533 | 62 | 205 | 1.0 | 4.0 | 0.00 | 0.34 | 0.01 | 1005.6 | |
| 20260506080529 | 61 | 225 | 2.0 | 4.0 | 0.00 | 0.34 | 0.01 | 1005.6 | |
| 20260506073517 | 61 | 239 | 1.0 | 4.0 | 0.00 | 0.34 | 0.01 | 1005.4 | |
| 20260506072614 | 60 | 224 | 0.0 | 4.0 | 0.00 | 0.34 | 0.01 | 1005.5 | |
| 20260506071611 | 61 | 158 | 3.0 | 7.0 | 0.00 | 0.34 | 0.01 | 1005.5 | |
| 20260506070607 | 59 | 135 | 2.0 | 5.0 | 0.00 | 0.34 | 0.01 | 38 | 1005.5 |
| 20260506061548 | 55 | 139 | 1.0 | 5.0 | 0.00 | 0.34 | 0.01 | 74 | 1005.7 |
| 20260506060545 | 55 | 180 | 3.0 | 6.0 | 0.00 | 0.34 | 0.01 | 80 | 1005.8 |
| 20260506050553 | 54 | 184 | 1.0 | 4.0 | 0.00 | 0.34 | 0.01 | 84 | 1005.9 |
| 20260506044545 | 54 | 195 | 0.0 | 3.0 | 0.00 | 0.34 | 0.01 | 84 | 1005.8 |
| 20260506043542 | 54 | 0.0 | 1.0 | 0.00 | 0.34 | 0.01 | 84 | 1005.8 | |
| 20260506042538 | 54 | 0.0 | 0.0 | 0.00 | 0.34 | 0.01 | 86 | 1005.6 | |
| 20260506041534 | 54 | 0.0 | 1.0 | 0.00 | 0.34 | 0.01 | 84 | 1005.7 | |
| 20260506040600 | 54 | 215 | 1.0 | 5.0 | 0.00 | 0.34 | 0.01 | 85 | 1005.5 |
| 20260506035556 | 54 | 166 | 1.0 | 5.0 | 0.00 | 0.34 | 0.01 | 87 | 1005.6 |
| 20260506034553 | 55 | 0.0 | 2.0 | 0.00 | 0.34 | 0.01 | 88 | 1005.5 | |
| 20260506033548 | 55 | 0.0 | 2.0 | 0.00 | 0.34 | 0.01 | 85 | 1005.4 | |
| 20260506032544 | 55 | 0.0 | 3.0 | 0.00 | 0.35 | 0.01 | 85 | 1005.5 | |
| 20260506031541 | 55 | 0.0 | 2.0 | 0.00 | 0.35 | 0.01 | 84 | 1005.5 | |
| 20260506030538 | 54 | 225 | 0.0 | 4.0 | 0.00 | 0.35 | 0.01 | 82 | 1005.5 |
| 20260506025538 | 55 | 225 | 1.0 | 4.0 | 0.00 | 0.35 | 0.01 | 81 | 1005.6 |
| 20260506024600 | 55 | 0.0 | 3.0 | 0.01 | 0.35 | 0.01 | 83 | 1005.6 | |
| 20260506023556 | 55 | 0.0 | 0.0 | 0.01 | 0.35 | 0.01 | 81 | 1005.6 | |
| 20260506022552 | 55 | 0.0 | 0.0 | 0.01 | 0.35 | 0.01 | 81 | 1005.6 | |
| 20260506021548 | 55 | 0.0 | 0.0 | 0.01 | 0.35 | 0.01 | 80 | 1005.6 | |
| 20260506020545 | 55 | 0.0 | 0.0 | 0.01 | 0.35 | 0.01 | 80 | 1005.6 | |
| 20260506015541 | 55 | 0.0 | 0.0 | 0.01 | 0.35 | 0.01 | 79 | 1005.6 | |
| 20260506014537 | 55 | 0.0 | 0.0 | 0.00 | 0.34 | 0.00 | 77 | 1005.6 | |
| 20260506013533 | 55 | 0.0 | 0.0 | 0.00 | 0.35 | 0.00 | 76 | 1005.8 | |
| 20260506012600 | 55 | 0.0 | 0.0 | 0.00 | 0.35 | 0.00 | 74 | 1005.9 | |
| 20260506011556 | 55 | 180 | 0.0 | 3.0 | 0.00 | 0.35 | 0.00 | 73 | 1005.8 |
| 20260506010552 | 55 | 0.0 | 0.0 | 0.00 | 0.35 | 0.00 | 70 | 1005.9 | |
| 20260506005549 | 55 | 180 | 1.0 | 4.0 | 0.00 | 0.35 | 0.00 | 69 | 1006.0 |
| 20260506004545 | 55 | 0.0 | 0.0 | 0.00 | 0.35 | 0.00 | 67 | 1006.1 | |
| 20260506003542 | 55 | 0.0 | 0.0 | 0.00 | 0.35 | 0.00 | 66 | 1006.1 | |
| 20260506002537 | 55 | 0.0 | 1.0 | 0.00 | 0.35 | 0.00 | 64 | 1006.3 | |
| 20260506001533 | 55 | 0.0 | 0.0 | 0.00 | 0.35 | 0.00 | 63 | 1006.2 | |
| 20260506000600 | 55 | 0.0 | 0.0 | 0.00 | 0.35 | 0.00 | 61 | 1006.4 | |
| 20260505235556 | 55 | 0.0 | 0.0 | 0.00 | 0.35 | 0.00 | 59 | 1006.4 | |
| 20260505234552 | 55 | 0.0 | 0.0 | 0.00 | 0.35 | 0.00 | 56 | 1006.4 | |
| 20260505233549 | 55 | 0.0 | 0.0 | 0.00 | 0.35 | 0.00 | 54 | 1006.5 | |
| 20260505232544 | 55 | 180 | 0.0 | 3.0 | 0.00 | 0.35 | 0.00 | 49 | 1006.5 |
| 20260505231540 | 55 | 180 | 0.0 | 2.0 | 0.00 | 0.35 | 0.00 | 45 | 1006.4 |